QPF
0.00 0.00 0.00 0.00 0.00 0.00 0.01 0.00 0.01 0.01 0.01 0.00 0.05 0.08 0.19 0.39 0.36 0.37 0.30 0.29 0.20 0.24 0.22 0.15 0.04 0.01 0.00 0.00 0.05 0.07 0.05 0.07 0.04 0.00 0.00 0.00 0.00 0.00 0.00 0.00 0.01 0.00 0.00
0.00 0.00 0.00 0.00 0.00 0.00 0.00 0.02 0.03 0.03 0.02 0.02 0.03 0.04 0.04 0.08 0.15 0.17 0.19 0.17 0.14 0.14 0.09 0.09 0.06 0.03 0.01 0.00 0.06 0.09 0.05 0.12 0.11 0.03 0.05 0.00 0.00 0.00 0.00 0.00 0.00 0.00 0.00
0.00 0.00 0.00 0.00 0.00 0.00 0.00 0.03 0.07 0.05 0.05 0.06 0.03 0.04 0.06 0.07 0.04 0.01 0.02 0.09 0.09 0.08 0.03 0.01 0.01 0.02 0.02 0.01 0.05 0.15 0.22 0.26 0.23 0.14 0.11 0.05 0.00 0.00 0.00 0.00 0.00 0.00 0.00
0.00 0.00 0.00 0.00 0.00 0.00 0.00 0.00 0.01 0.03 0.06 0.06 0.04 0.02 0.01 0.02 0.02 0.02 0.02 0.02 0.02 0.00 0.00 0.00 0.00 0.01 0.02 0.03 0.07 0.14 0.12 0.12 0.09 0.06 0.05 0.02 0.00 0.00 0.00 0.01 0.02 0.03 0.01
0.00 0.00 0.00 0.00 0.00 0.00 0.00 0.00 0.00 0.01 0.02 0.06 0.10 0.07 0.03 0.02 0.02 0.01 0.00 0.00 0.00 0.00 0.00 0.00 0.00 0.00 0.00 0.01 0.00 0.01 0.00 0.00 0.00 0.00 0.00 0.00 0.00 0.00 0.01 0.03 0.04 0.06 0.01
0.00 0.00 0.00 0.00 0.00 0.00 0.00 0.00 0.00 0.00 0.00 0.01 0.01 0.04 0.04 0.03 0.06 0.05 0.02 0.00 0.00 0.00 0.00 0.00 0.01 0.00 0.00 0.00 0.00 0.00 0.00 0.00 0.00 0.00 0.00 0.00 0.00 0.00 0.01 0.02 0.04 0.05 0.02
0.00 0.00 0.00 0.00 0.00 0.00 0.00 0.00 0.00 0.00 0.00 0.00 0.00 0.00 0.01 0.05 0.08 0.01 0.02 0.00 0.00 0.00 0.00 0.00 0.00 0.00 0.00 0.00 0.00 0.00 0.00 0.00 0.00 0.00 0.00 0.00 0.00 0.00 0.00 0.00 0.01 0.02 0.04
0.00 0.00 0.00 0.00 0.00 0.00 0.00 0.00 0.00 0.02 0.01 0.00 0.00 0.00 0.00 0.02 0.06 0.03 0.01 0.00 0.00 0.00 0.00 0.00 0.00 0.00 0.00 0.00 0.00 0.00 0.00 0.00 0.00 0.00 0.00 0.00 0.00 0.00 0.00 0.00 0.00 0.01 0.01
0.00 0.00 0.00 0.00 0.00 0.00 0.00 0.00 0.00 0.03 0.06 0.04 0.00 0.00 0.00 0.03 0.03 0.01 0.00 0.00 0.00 0.00 0.00 0.00 0.00 0.00 0.00 0.00 0.00 0.00 0.00 0.00 0.00 0.00 0.00 0.00 0.00 0.00 0.00 0.00 0.00 0.00 0.00
0.01 0.01 0.01 0.01 0.00 0.00 0.00 0.00 0.00 0.02 0.05 0.09 0.05 0.01 0.06 0.10 0.13 0.02 0.01 0.00 0.01 0.02 0.00 0.00 0.00 0.00 0.00 0.00 0.00 0.00 0.00 0.00 0.00 0.00 0.00 0.00 0.00 0.00 0.00 0.00 0.00 0.00 0.00
0.01 0.01 0.01 0.01 0.01 0.00 0.00 0.00 0.00 0.01 0.02 0.05 0.08 0.06 0.09 0.16 0.16 0.09 0.05 0.01 0.00 0.01 0.00 0.00 0.00 0.00 0.00 0.00 0.00 0.00 0.00 0.00 0.00 0.00 0.00 0.00 0.00 0.00 0.00 0.00 0.00 0.01 0.01
0.01 0.01 0.01 0.01 0.01 0.00 0.00 0.00 0.00 0.00 0.00 0.01 0.04 0.06 0.07 0.14 0.24 0.22 0.10 0.04 0.00 0.00 0.01 0.00 0.00 0.00 0.00 0.00 0.00 0.00 0.00 0.00 0.00 0.00 0.00 0.00 0.00 0.00 0.00 0.00 0.00 0.01 0.01
0.00 0.01 0.01 0.01 0.01 0.01 0.01 0.00 0.00 0.00 0.00 0.00 0.02 0.05 0.05 0.09 0.15 0.18 0.15 0.05 0.01 0.00 0.00 0.01 0.00 0.00 0.00 0.00 0.00 0.00 0.00 0.00 0.00 0.00 0.00 0.00 0.00 0.00 0.00 0.00 0.00 0.00 0.02
0.01 0.01 0.00 0.00 0.00 0.01 0.01 0.01 0.00 0.00 0.00 0.00 0.01 0.02 0.05 0.05 0.11 0.10 0.07 0.07 0.07 0.05 0.01 0.04 0.02 0.00 0.00 0.00 0.00 0.00 0.00 0.00 0.00 0.00 0.00 0.00 0.00 0.00 0.00 0.00 0.02 0.08 0.15
0.00 0.00 0.01 0.00 0.00 0.00 0.00 0.00 0.00 0.00 0.00 0.00 0.00 0.02 0.05 0.06 0.08 0.07 0.06 0.02 0.01 0.01 0.02 0.00 0.00 0.00 0.00 0.00 0.00 0.00 0.00 0.00 0.00 0.00 0.00 0.00 0.00 0.00 0.00 0.02 0.09 0.17 0.22
0.00 0.00 0.00 0.01 0.01 0.00 0.00 0.00 0.00 0.00 0.00 0.00 0.00 0.00 0.02 0.02 0.02 0.03 0.06 0.04 0.00 0.01 0.02 0.00 0.00 0.00 0.00 0.00 0.00 0.00 0.00 0.00 0.00 0.00 0.00 0.00 0.00 0.00 0.01 0.05 0.11 0.23 0.17
0.01 0.01 0.01 0.01 0.01 0.01 0.00 0.00 0.00 0.00 0.00 0.00 0.00 0.00 0.00 0.00 0.00 0.00 0.01 0.00 0.00 0.00 0.00 0.00 0.00 0.00 0.00 0.00 0.00 0.00 0.00 0.00 0.00 0.00 0.00 0.00 0.00 0.00 0.04 0.09 0.10 0.09 0.08
0.01 0.01 0.01 0.01 0.01 0.01 0.01 0.01 0.01 0.01 0.00 0.00 0.00 0.00 0.00 0.00 0.00 0.00 0.00 0.00 0.00 0.00 0.00 0.00 0.00 0.00 0.00 0.00 0.00 0.00 0.00 0.00 0.00 0.00 0.00 0.00 0.00 0.01 0.04 0.06 0.10 0.05 0.12
0.00 0.00 0.00 0.01 0.00 0.00 0.00 0.01 0.01 0.01 0.00 0.00 0.00 0.00 0.00 0.00 0.00 0.00 0.00 0.00 0.00 0.00 0.00 0.00 0.00 0.00 0.00 0.00 0.00 0.00 0.00 0.00 0.00 0.00 0.00 0.00 0.00 0.01 0.02 0.03 0.05 0.06 0.15
0.00 0.00 0.00 0.00 0.01 0.00 0.00 0.00 0.00 0.01 0.01 0.01 0.00 0.00 0.00 0.00 0.00 0.00 0.00 0.00 0.00 0.00 0.00 0.00 0.00 0.00 0.00 0.00 0.00 0.00 0.00 0.00 0.00 0.00 0.00 0.00 0.01 0.03 0.02 0.04 0.06 0.10 0.13
0.00 0.00 0.00 0.00 0.00 0.00 0.00 0.00 0.00 0.00 0.00 0.01 0.00 0.00 0.00 0.00 0.00 0.00 0.00 0.00 0.00 0.00 0.00 0.00 0.00 0.00 0.00 0.00 0.00 0.00 0.00 0.00 0.00 0.00 0.00 0.00 0.01 0.02 0.02 0.10 0.12 0.18 0.16
0.00 0.00 0.00 0.00 0.00 0.00 0.00 0.00 0.00 0.01 0.01 0.00 0.00 0.00 0.00 0.00 0.00 0.00 0.00 0.00 0.00 0.00 0.00 0.00 0.00 0.00 0.00 0.00 0.00 0.00 0.00 0.00 0.00 0.00 0.00 0.00 0.00 0.01 0.06 0.13 0.15 0.13 0.09
0.00 0.00 0.00 0.00 0.00 0.00 0.00 0.00 0.01 0.01 0.01 0.01 0.01 0.00 0.00 0.00 0.00 0.00 0.00 0.00 0.00 0.00 0.00 0.00 0.00 0.00 0.00 0.00 0.00 0.00 0.00 0.00 0.01 0.01 0.01 0.01 0.00 0.02 0.09 0.13 0.16 0.11 0.04
0.00 0.00 0.01 0.00 0.00 0.00 0.00 0.00 0.00 0.00 0.00 0.00 0.00 0.01 0.00 0.00 0.00 0.00 0.00 0.00 0.00 0.00 0.00 0.00 0.00 0.00 0.00 0.00 0.00 0.00 0.00 0.00 0.01 0.02 0.02 0.06 0.04 0.07 0.09 0.11 0.11 0.06 0.03
0.00 0.00 0.01 0.01 0.00 0.00 0.00 0.00 0.00 0.00 0.00 0.00 0.00 0.01 0.00 0.00 0.00 0.00 0.00 0.00 0.00 0.00 0.00 0.00 0.00 0.00 0.00 0.00 0.00 0.00 0.00 0.00 0.01 0.04 0.07 0.11 0.09 0.04 0.05 0.05 0.05 0.04 0.01
0.00 0.00 0.00 0.00 0.00 0.00 0.00 0.00 0.00 0.00 0.00 0.00 0.00 0.00 0.00 0.00 0.00 0.00 0.00 0.00 0.00 0.00 0.00 0.00 0.00 0.00 0.00 0.00 0.00 0.00 0.00 0.01 0.02 0.01 0.04 0.05 0.04 0.03 0.05 0.06 0.04 0.01 0.00
MSLP
1003.92 1003.66 1003.51 1003.37 1003.02 1002.73 1002.51 1002.47 1002.29 1001.83 1000.99 1000.07 999.10 998.28 998.19 998.87 999.42 1000.18 1001.32 1000.84 1001.23 1002.32 1003.65 1001.66 1002.68 1003.39 1004.18 1004.45 1004.85 1005.37 1005.89 1006.64 1007.32 1007.07 1007.02 1006.80 1007.03 1007.07 1006.95 1006.86 1006.72 1006.84 1006.35
1003.47 1003.39 1003.32 1003.14 1002.89 1002.73 1002.51 1002.38 1002.55 1002.29 1001.83 1001.80 1000.89 998.98 998.50 997.63 998.05 1000.00 1000.43 1000.71 1001.86 1002.74 1002.84 1002.33 1001.91 1002.66 1003.53 1004.04 1004.56 1004.99 1005.65 1006.29 1006.91 1006.71 1006.31 1006.43 1006.45 1006.53 1006.55 1006.43 1006.34 1006.09 1005.80
1003.05 1003.29 1003.11 1002.89 1002.65 1002.35 1002.24 1002.09 1002.19 1002.13 1001.79 1001.49 1001.36 1000.60 1000.41 997.87 997.18 997.63 998.48 1000.33 1001.86 1002.23 1001.13 1001.06 1001.58 1002.26 1003.03 1003.76 1004.53 1004.91 1005.54 1005.99 1006.12 1006.41 1005.91 1006.24 1005.84 1005.91 1006.18 1005.93 1005.75 1005.65 1005.55
1002.22 1002.42 1002.59 1002.73 1002.61 1002.29 1001.90 1001.77 1001.92 1002.03 1001.73 1000.80 1000.49 1000.35 999.86 994.88 996.37 997.42 998.11 999.14 999.99 1000.33 1000.01 1000.32 1001.14 1001.80 1002.53 1003.38 1004.19 1004.83 1005.32 1005.75 1005.65 1005.92 1005.59 1006.18 1005.46 1005.36 1005.64 1005.66 1005.38 1005.23 1005.27
1001.54 1001.80 1001.97 1002.25 1002.35 1002.18 1001.85 1001.30 1001.37 1001.60 1001.47 1000.50 999.99 1000.47 1000.73 999.02 996.39 997.20 998.14 998.87 999.47 999.95 1000.21 1000.47 1000.80 1001.35 1002.06 1002.87 1003.91 1004.80 1005.14 1005.52 1005.51 1005.56 1005.45 1005.25 1005.41 1005.45 1005.62 1005.17 1005.13 1005.07 1004.74
1000.99 1001.05 1001.27 1001.41 1001.60 1001.52 1001.37 1001.17 1000.73 1000.98 1000.93 1000.21 999.73 1000.02 1000.48 999.17 1000.05 997.44 998.71 997.40 998.74 999.45 1000.35 1000.83 1001.55 1002.05 1002.87 1003.32 1003.64 1004.34 1004.93 1005.39 1005.78 1005.98 1005.91 1005.82 1005.99 1005.93 1005.74 1005.59 1005.43 1005.37 1004.92
1000.67 1000.86 1000.96 1000.88 1000.71 1000.61 1000.49 1000.33 1000.28 1000.23 1000.18 1000.03 999.90 999.15 1000.32 1000.49 999.87 999.73 999.79 998.24 999.35 999.55 1000.50 1001.13 1001.78 1002.15 1002.78 1003.58 1004.09 1004.57 1004.85 1005.11 1005.36 1005.66 1006.04 1005.86 1005.76 1005.69 1005.63 1005.50 1005.36 1005.03 1004.65
1000.27 1000.45 1000.47 1000.39 1000.27 1000.53 1000.12 1000.05 999.67 999.59 999.74 999.21 999.07 998.79 999.20 999.37 999.25 999.34 999.99 999.88 999.74 999.77 1000.53 1001.10 1001.70 1002.17 1002.67 1003.38 1003.98 1004.58 1004.76 1004.84 1005.14 1005.31 1005.52 1005.21 1005.10 1005.14 1005.14 1005.04 1005.05 1004.79 1004.35
1000.09 1000.12 1000.07 1000.06 1000.09 1000.16 999.58 999.51 999.42 999.13 998.94 998.81 998.51 999.04 999.18 999.63 999.46 998.74 999.07 999.50 999.98 999.80 1000.32 1000.82 1001.25 1002.10 1002.48 1002.75 1003.34 1003.99 1004.29 1004.31 1004.29 1004.40 1004.37 1004.42 1004.43 1004.51 1004.53 1004.91 1004.67 1004.49 1003.86
999.79 999.65 999.62 999.82 999.65 999.60 999.13 999.07 998.97 998.87 998.22 997.97 997.66 997.31 998.07 999.28 999.39 998.70 998.56 998.96 1000.08 1000.49 1000.30 1000.67 1001.00 1001.50 1002.02 1002.43 1003.09 1003.63 1004.24 1004.28 1004.10 1004.06 1004.08 1004.09 1003.98 1003.81 1003.55 1003.75 1003.86 1003.95 1003.86
999.69 999.44 998.95 998.80 998.53 998.44 998.39 998.41 998.50 998.22 998.04 997.95 997.39 997.15 997.29 997.29 998.12 998.40 998.35 998.89 1000.05 1000.53 999.85 1000.43 1000.76 1001.25 1001.73 1002.48 1002.85 1003.23 1003.64 1003.75 1003.94 1004.09 1004.11 1003.87 1003.31 1002.93 1002.72 1002.56 1002.71 1002.98 1003.12
999.10 998.66 998.37 997.80 997.95 997.59 997.56 997.71 997.77 997.70 997.40 997.31 997.41 996.71 996.51 996.29 996.68 997.81 998.29 998.66 999.30 1000.04 999.45 999.57 999.66 1000.49 1001.49 1002.05 1002.58 1002.56 1003.22 1003.66 1003.86 1003.90 1003.69 1003.40 1002.99 1002.51 1002.00 1001.87 1002.16 1002.27 1002.14
998.26 997.74 997.39 997.01 996.94 996.99 996.96 997.13 997.27 997.27 997.03 996.90 996.89 996.37 996.30 996.37 996.55 997.24 998.41 998.89 998.89 999.30 999.00 999.42 999.48 999.91 1000.65 1001.31 1001.93 1002.49 1003.20 1003.51 1003.55 1003.47 1003.28 1002.81 1002.41 1001.99 1001.87 1001.89 1001.86 1001.70 1001.54
997.69 997.08 996.79 996.45 996.16 996.13 996.38 996.62 996.61 996.61 996.49 996.50 996.49 996.28 996.01 996.04 996.21 996.92 997.78 998.55 999.11 999.74 999.71 1000.03 999.85 1000.14 1000.47 1000.60 1001.57 1002.61 1002.67 1002.61 1002.67 1002.55 1002.30 1001.92 1001.52 1001.56 1001.58 1001.57 1001.43 1001.16 1000.82
997.33 996.55 996.21 996.10 995.90 995.70 995.69 995.80 995.93 996.04 996.09 996.11 996.00 996.11 996.40 995.95 997.38 997.83 997.27 997.51 997.84 998.07 998.84 999.17 999.98 1000.17 1000.47 1000.69 1000.98 1001.40 1001.68 1001.67 1001.73 1001.59 1001.42 1001.16 1001.03 1001.11 1001.25 1001.05 1000.92 1000.73 1000.73
996.81 996.13 995.44 995.28 994.97 994.86 994.96 995.04 995.29 995.63 995.85 996.01 996.11 996.40 996.71 996.79 997.15 997.80 996.08 997.26 996.57 997.15 998.67 998.72 999.03 999.29 999.42 999.79 1000.01 1000.26 1000.44 1000.47 1000.47 1000.40 1000.25 1000.15 1000.53 1000.74 1000.99 1000.90 1000.67 1000.60 1000.37
995.98 995.49 995.10 994.86 994.51 994.41 994.47 994.67 994.80 995.04 995.27 995.55 995.89 996.35 996.62 996.92 996.89 996.98 997.13 997.39 997.24 996.98 997.63 997.98 998.15 998.28 998.56 998.82 999.14 999.36 999.53 999.46 999.47 999.47 999.43 999.81 1000.33 1000.50 1000.79 1000.68 1000.51 1000.40 1000.79
995.14 994.89 994.65 994.15 994.06 994.17 994.16 994.24 994.39 994.54 994.49 994.47 994.77 995.49 996.23 996.77 996.77 997.15 997.16 997.30 997.21 997.51 996.71 997.07 997.48 997.78 998.10 998.33 998.55 998.73 998.86 998.90 998.97 998.95 999.07 999.41 999.91 1000.35 1000.51 1000.44 1000.44 1000.25 1000.67
994.17 993.85 993.80 993.75 993.37 993.51 993.87 993.71 993.67 993.89 993.97 993.91 993.87 994.07 994.89 995.71 996.12 996.57 997.38 997.52 996.80 996.44 996.13 996.43 996.75 997.24 997.66 997.98 998.25 998.45 998.55 998.55 998.52 998.57 998.83 999.30 999.72 1000.05 1000.24 1000.27 1000.37 1000.55 1000.45
993.40 992.99 992.94 992.91 992.94 992.89 993.11 993.44 993.54 993.56 993.49 993.57 993.60 993.84 994.15 995.06 995.71 996.19 996.40 996.73 996.54 995.96 995.76 996.10 996.55 997.12 997.58 997.87 998.05 998.21 998.03 998.03 998.09 998.26 998.75 999.04 999.33 999.55 999.90 999.98 1000.03 1000.39 1000.30
992.25 992.05 992.05 992.01 992.01 992.22 992.50 992.83 993.11 993.37 993.42 993.31 993.39 993.59 993.80 994.10 994.51 994.92 995.16 995.76 995.95 995.76 995.42 995.65 996.21 996.75 997.21 997.51 997.75 997.61 997.60 997.40 997.47 997.95 998.54 998.87 999.06 999.07 999.41 999.54 999.58 999.93 999.89
991.51 991.30 991.08 990.95 990.97 991.33 991.79 992.28 992.69 992.91 993.14 993.38 993.45 993.61 993.78 993.91 994.03 993.75 994.14 994.82 995.29 995.55 995.45 995.63 996.02 996.22 996.33 996.75 997.07 997.15 997.16 997.14 997.39 997.70 998.11 998.49 998.58 998.89 999.13 999.19 999.20 999.39 999.88
990.78 990.43 990.05 989.72 989.80 990.43 991.33 991.89 992.28 992.60 992.81 993.05 993.30 993.63 993.94 994.18 994.07 993.96 993.68 994.10 994.66 995.17 995.59 995.84 996.14 996.34 996.49 996.80 997.05 997.10 996.77 997.01 997.32 997.71 997.86 998.00 998.26 998.54 998.76 998.77 999.21 999.28 1000.29
990.48 989.86 989.68 989.71 989.65 989.99 990.91 991.46 991.89 992.23 992.57 992.71 993.07 993.21 993.50 993.81 993.73 993.88 993.94 993.95 994.31 994.73 995.19 995.71 996.17 996.34 996.57 996.84 997.00 996.99 996.67 996.81 997.20 997.35 997.53 997.71 998.04 998.30 998.71 998.62 998.85 999.77 1000.55
991.78 991.12 990.67 990.46 990.53 990.97 991.30 991.54 991.85 991.99 992.19 992.34 992.70 992.99 993.19 993.34 993.56 993.79 993.94 994.08 994.25 994.37 994.83 995.35 995.89 996.21 996.35 996.49 996.62 996.53 996.61 996.97 997.07 997.28 997.48 997.55 997.82 998.24 998.44 998.55 999.43 1000.14 1000.95
993.44 992.79 992.26 991.79 991.51 991.39 991.43 991.59 991.77 991.85 991.97 992.03 992.26 992.56 992.95 993.24 993.46 993.69 993.76 993.90 994.06 994.33 994.75 995.08 995.35 995.49 995.65 996.02 996.21 996.22 996.42 996.77 996.82 996.93 997.22 997.35 997.82 998.41 998.21 999.18 999.86 1000.71 1001.59
Thickness
5626 5627 5626 5625 5628 5629 5631 5632 5634 5637 5645 5655 5669 5680 5680 5679 5678 5672 5661 5666 5669 5663 5656 5667 5667 5670 5669 5673 5672 5668 5667 5662 5652 5663 5665 5669 5668 5669 5672 5672 5676 5675 5682
5613 5613 5612 5612 5615 5614 5617 5617 5613 5613 5617 5618 5633 5649 5658 5674 5674 5653 5657 5662 5648 5650 5651 5655 5665 5670 5669 5670 5666 5662 5660 5656 5649 5653 5662 5663 5663 5664 5665 5667 5670 5673 5679
5598 5595 5597 5598 5600 5602 5604 5604 5599 5599 5599 5601 5606 5615 5616 5645 5656 5661 5662 5645 5636 5640 5652 5659 5661 5663 5660 5660 5657 5654 5648 5648 5649 5647 5643 5649 5658 5660 5657 5662 5665 5671 5674
5593 5589 5586 5583 5584 5588 5592 5592 5586 5583 5583 5589 5596 5598 5590 5631 5644 5647 5645 5646 5645 5643 5653 5658 5656 5655 5654 5650 5648 5642 5641 5638 5643 5639 5636 5641 5653 5655 5654 5655 5660 5666 5666
5582 5579 5575 5571 5570 5572 5576 5581 5576 5571 5573 5578 5585 5583 5572 5596 5625 5631 5634 5634 5636 5637 5638 5643 5647 5648 5649 5646 5640 5634 5632 5630 5633 5636 5638 5644 5644 5646 5646 5653 5654 5656 5664
5568 5564 5561 5559 5558 5559 5562 5565 5569 5563 5563 5570 5578 5582 5575 5592 5588 5619 5621 5629 5634 5632 5628 5631 5630 5630 5629 5630 5631 5628 5625 5621 5620 5619 5623 5627 5629 5634 5638 5642 5645 5645 5649
5552 5546 5540 5538 5540 5544 5548 5553 5556 5555 5556 5561 5568 5577 5569 5566 5580 5592 5583 5610 5614 5620 5616 5617 5617 5621 5620 5617 5616 5615 5614 5613 5614 5615 5615 5620 5625 5627 5631 5634 5637 5643 5647
5536 5529 5523 5517 5514 5514 5524 5533 5542 5547 5545 5558 5563 5572 5572 5577 5582 5588 5589 5595 5605 5609 5607 5608 5608 5609 5612 5611 5609 5606 5607 5608 5607 5609 5611 5617 5623 5625 5629 5632 5634 5637 5642
5524 5516 5508 5501 5495 5493 5501 5512 5522 5532 5538 5545 5557 5555 5558 5564 5569 5583 5588 5590 5590 5595 5595 5600 5601 5600 5603 5606 5608 5604 5603 5604 5609 5610 5613 5616 5620 5622 5624 5626 5629 5630 5635
5514 5506 5497 5487 5482 5482 5488 5492 5504 5515 5530 5537 5549 5561 5559 5556 5561 5573 5582 5588 5579 5578 5587 5590 5593 5597 5598 5600 5602 5599 5594 5596 5601 5605 5608 5612 5616 5622 5625 5626 5628 5626 5627
5499 5494 5490 5481 5477 5477 5479 5481 5486 5501 5514 5525 5539 5547 5554 5563 5565 5569 5576 5583 5577 5577 5588 5584 5588 5591 5593 5591 5594 5596 5591 5595 5597 5598 5601 5606 5614 5621 5625 5628 5629 5628 5627
5490 5486 5482 5478 5470 5473 5473 5474 5477 5488 5502 5515 5527 5543 5552 5566 5571 5567 5569 5575 5575 5573 5585 5591 5594 5591 5588 5588 5588 5593 5587 5587 5591 5593 5596 5601 5607 5615 5623 5627 5628 5628 5632
5480 5478 5477 5476 5470 5467 5468 5469 5471 5478 5492 5504 5519 5535 5545 5553 5563 5560 5557 5561 5569 5572 5578 5584 5589 5591 5589 5589 5586 5582 5579 5585 5588 5590 5594 5600 5605 5613 5618 5620 5623 5626 5630
5472 5472 5469 5471 5469 5469 5467 5465 5469 5475 5487 5498 5511 5525 5539 5547 5557 5556 5553 5554 5556 5558 5566 5570 5578 5582 5586 5591 5585 5575 5581 5588 5589 5592 5597 5603 5609 5612 5614 5617 5619 5623 5630
5467 5467 5463 5460 5464 5465 5466 5466 5468 5472 5481 5494 5506 5516 5525 5542 5529 5535 5549 5554 5561 5566 5565 5569 5570 5575 5580 5583 5586 5584 5584 5590 5592 5596 5600 5605 5609 5611 5612 5616 5618 5622 5626
5463 5464 5466 5460 5461 5465 5466 5468 5468 5468 5472 5478 5487 5496 5507 5514 5523 5524 5534 5541 5558 5559 5556 5565 5569 5574 5581 5584 5585 5586 5589 5594 5598 5603 5607 5610 5609 5610 5609 5611 5614 5617 5621
5465 5462 5460 5458 5458 5458 5462 5463 5466 5469 5471 5476 5481 5486 5494 5504 5514 5524 5531 5537 5545 5555 5560 5563 5569 5576 5580 5583 5585 5587 5592 5598 5604 5606 5610 5610 5606 5608 5606 5608 5610 5615 5617
5467 5460 5457 5459 5456 5453 5454 5458 5462 5466 5474 5483 5483 5485 5486 5493 5504 5510 5520 5531 5546 5545 5561 5564 5567 5572 5575 5578 5582 5587 5593 5598 5601 5606 5608 5609 5607 5604 5604 5603 5604 5612 5617
5474 5467 5460 5456 5458 5455 5451 5455 5461 5464 5471 5479 5487 5490 5488 5490 5497 5505 5508 5522 5539 5551 5559 5561 5565 5568 5572 5576 5580 5585 5591 5596 5601 5605 5606 5604 5604 5602 5602 5601 5604 5604 5612
5482 5475 5467 5460 5456 5454 5451 5449 5451 5457 5465 5471 5481 5489 5492 5489 5495 5503 5513 5521 5533 5545 5553 5556 5559 5562 5566 5573 5578 5583 5591 5596 5600 5604 5602 5603 5603 5601 5599 5601 5603 5607 5614
5494 5485 5476 5469 5461 5453 5446 5444 5445 5449 5456 5465 5474 5480 5486 5498 5503 5507 5515 5522 5530 5538 5548 5553 5557 5561 5566 5571 5576 5584 5590 5598 5604 5603 5599 5599 5600 5600 5600 5602 5607 5609 5615
5501 5494 5486 5478 5469 5456 5447 5444 5442 5446 5453 5460 5466 5473 5475 5492 5501 5512 5517 5521 5526 5532 5541 5548 5554 5563 5571 5574 5579 5585 5591 5598 5601 5601 5602 5600 5600 5598 5598 5602 5608 5613 5613
5513 5507 5501 5493 5481 5467 5455 5449 5446 5448 5456 5461 5466 5470 5477 5485 5496 5505 5516 5520 5524 5530 5536 5544 5552 5560 5567 5572 5580 5586 5594 5596 5597 5599 5600 5601 5600 5602 5604 5608 5609 5614 5609
5526 5523 5518 5508 5496 5484 5470 5463 5459 5457 5460 5465 5468 5474 5478 5486 5497 5502 5509 5518 5523 5532 5538 5544 5551 5560 5566 5572 5578 5586 5595 5598 5598 5599 5602 5601 5600 5603 5604 5610 5614 5610 5607
5523 5521 5518 5515 5506 5491 5483 5477 5474 5473 5473 5474 5475 5479 5483 5490 5499 5504 5509 5515 5525 5535 5544 5550 5555 5561 5569 5574 5578 5587 5593 5591 5596 5598 5599 5599 5602 5605 5608 5613 5609 5606 5602
5518 5517 5514 5512 5511 5509 5504 5497 5490 5487 5486 5488 5488 5489 5490 5494 5501 5508 5516 5522 5530 5540 5548 5554 5559 5567 5574 5577 5582 5588 5590 5591 5596 5597 5601 5603 5603 5602 5608 5606 5604 5599 5593